Zurück zum Katalog

COSMOS 2251 DEB

AktivLEO
NORAD 34909·DEBRIS·🇷🇺 Russia

Gestartet Jun 16, 1993 von Plesetsk Cosmodrome

Loading…

Nächste Überflüge (nächste 24 Stunden)

TLE

AktuellSource: Space-Track

Epoche: Sep 13, 2026, 17:02 UTC

1 34909U 93036ADE 26256.70977965  .00002378  00000-0  30537-3 0  9998
2 34909  74.0110 255.2014 0083353 319.0652  40.4283 14.79403220709163

Verfolge COSMOS 2251 DEB in Echtzeit mit AllMySat

Download on the App Store